Ravenna, OH

5:47 PM EDT on May 26, 2017 (GMT -0400)
Ravenna

Weather History for KPOV - February, 2013

Change the Weather History Date:

Wednesday, February 13, 2013

  Actual Average (KCAK) Record (KCAK)
Temperature  
Mean Temperature 28 °F -  
Max Temperature 33 °F 34 °F 66 °F (1938)
Min Temperature 23 °F 18 °F -12 °F (1905)
Degree Days  
Heating Degree Days 37    
Moisture  
Dew Point 24 °F    
Average Humidity 86    
Maximum Humidity 100    
Minimum Humidity 67    
Precipitation  
Precipitation 0.00 in - - ()
Sea Level Pressure  
Sea Level Pressure 29.79 in    
Wind  
Wind Speed 2 mph (NW)    
Max Wind Speed 8 mph    
Max Gust Speed -    
Visibility 9 miles    
Events      
Averages and records for this station are not official NWS values.
T = Trace of Precipitation, MM = Missing Value Source: NWS Daily Summary

Daily Weather History Graph

Daily Weather History Graph

Search for Another Location

Airport or City:

Trip Planner

Search our weather history database for the weather conditions in past years. The results will help you decide how hot, cold, wet, or windy it might be!

Date:

Astronomy

Feb. 13, 2013 Rise Set
Actual Time 7:21 AM EST 5:56 PM EST
Civil Twilight 6:53 AM EST 6:25 PM EST
Nautical Twilight 6:21 AM EST 6:57 PM EST
Astronomical Twilight 5:49 AM EST 7:29 PM EST
Moon 8:47 AM EST (2/13) 10:01 PM EST (2/13)
Length of Visible Light 11h 31m
Length of Day
10h 35m
Waxing Crescent, 13% of the Moon is Illuminated
Feb 13
Waxing Crescent
Feb 17
First Quarter
Feb 25
Full
Mar 4
Last Quarter
Mar 11
New

Hourly Weather History & Observations

Time (EST) Temp. Windchill Dew Point Humidity Pressure Visibility Wind Dir Wind Speed Gust Speed Precip Events Conditions
12:15 AM 24.4 °F - 24.6 °F 100% 29.91 in 7.0 mi Calm Calm - N/A   Clear
12:35 AM 23.4 °F - 23.5 °F 100% 29.90 in 7.0 mi Calm Calm - N/A   Clear
12:55 AM 24.1 °F 19.7 °F 24.3 °F 100% 29.90 in 7.0 mi ENE 3.5 mph - N/A   Clear
1:15 AM - - - N/A% 29.89 in 5.0 mi Calm Calm - N/A   Clear
1:35 AM 23.9 °F 19.5 °F 23.9 °F 100% 29.89 in 7.0 mi East 3.5 mph - N/A   Mostly Cloudy
1:55 AM 25.7 °F 20.1 °F 25.9 °F 100% 29.87 in 10.0 mi East 4.6 mph - N/A   Overcast
2:16 AM 26.6 °F - 25.3 °F 95% 29.87 in 10.0 mi Calm Calm - N/A   Overcast
2:35 AM 26.8 °F - 25.5 °F 95% 29.87 in 10.0 mi Calm Calm - N/A   Overcast
2:56 AM 27.3 °F - 25.7 °F 94% 29.86 in 10.0 mi Calm Calm - N/A   Overcast
3:15 AM 27.1 °F 23.2 °F 24.4 °F 90% 29.85 in 10.0 mi ESE 3.5 mph - N/A   Overcast
3:35 AM 25.9 °F - 23.4 °F 90% 29.85 in 10.0 mi Calm Calm - N/A   Mostly Cloudy
3:56 AM 25.3 °F - 22.6 °F 89% 29.84 in 10.0 mi Calm Calm - N/A   Mostly Cloudy
4:15 AM 25.2 °F - 24.8 °F 99% 29.84 in 7.0 mi Calm Calm - N/A   Overcast
4:36 AM 25.2 °F - 24.1 °F 96% 29.84 in 7.0 mi Calm Calm - N/A   Overcast
4:55 AM 25.9 °F - 24.4 °F 94% 29.84 in 7.0 mi Calm Calm - N/A   Overcast
5:16 AM 26.2 °F - 24.3 °F 92% 29.84 in 10.0 mi Calm Calm - N/A   Overcast
5:35 AM 26.6 °F - 24.8 °F 93% 29.83 in 7.0 mi Calm Calm - N/A   Overcast
5:56 AM 26.6 °F 22.6 °F 25.2 °F 94% 29.83 in 7.0 mi WNW 3.5 mph - N/A   Overcast
6:16 AM 26.6 °F - 24.8 °F 93% 29.82 in 7.0 mi Calm Calm - N/A   Overcast
6:35 AM 26.6 °F - 25.2 °F 94% 29.81 in 7.0 mi Calm Calm - N/A   Overcast
6:56 AM 27.0 °F - 25.5 °F 94% 29.81 in 7.0 mi Calm Calm - N/A   Overcast
7:15 AM 27.3 °F - 25.3 °F 92% 29.81 in 7.0 mi Calm Calm - N/A   Overcast
7:36 AM 27.5 °F 23.6 °F 26.2 °F 95% 29.80 in 7.0 mi NNW 3.5 mph - N/A   Overcast
7:55 AM 27.9 °F 24.0 °F 25.7 °F 92% 29.80 in 7.0 mi NW 3.5 mph - N/A   Overcast
8:15 AM 28.2 °F 23.1 °F 26.1 °F 92% 29.80 in 5.0 mi NNW 4.6 mph - N/A   Overcast
8:35 AM 28.9 °F 22.8 °F 26.2 °F 90% 29.79 in 7.0 mi North 5.8 mph - N/A   Overcast
8:56 AM 29.3 °F 24.3 °F 25.9 °F 87% 29.79 in 7.0 mi NNW 4.6 mph - N/A   Overcast
9:15 AM 29.3 °F 24.3 °F 24.6 °F 83% 29.78 in 10.0 mi NNW 4.6 mph - N/A   Overcast
9:35 AM 29.3 °F 24.3 °F 24.6 °F 83% 29.77 in 10.0 mi NNE 4.6 mph - N/A   Overcast
9:55 AM 29.3 °F 25.6 °F 24.3 °F 81% 29.78 in 10.0 mi NE 3.5 mph - N/A   Overcast
10:15 AM 29.3 °F 25.6 °F 24.6 °F 83% 29.79 in 10.0 mi NE 3.5 mph - N/A   Overcast
10:35 AM 29.3 °F 24.3 °F 23.7 °F 80% 29.79 in 10.0 mi North 4.6 mph - N/A   Overcast
10:56 AM 29.3 °F - 23.5 °F 79% 29.79 in 10.0 mi Calm Calm - N/A   Overcast
11:16 AM 30.2 °F 26.7 °F 24.3 °F 79% 29.78 in 10.0 mi NE 3.5 mph - N/A   Overcast
11:35 AM 30.6 °F - 23.7 °F 76% 29.77 in 10.0 mi Calm Calm - N/A   Overcast
11:56 AM 31.1 °F - 23.0 °F 72% 29.77 in 10.0 mi Calm Calm - N/A   Mostly Cloudy
12:15 PM 31.5 °F - 23.4 °F 72% 29.77 in 10.0 mi Calm Calm - N/A   Overcast
12:35 PM 33.1 °F 28.7 °F 25.2 °F 73% 29.75 in 10.0 mi ESE 4.6 mph - N/A   Overcast
12:56 PM 32.2 °F 28.9 °F 24.3 °F 73% 29.74 in 10.0 mi East 3.5 mph - N/A   Scattered Clouds
1:15 PM 32.9 °F - 24.8 °F 72% 29.72 in 10.0 mi Calm Calm - N/A   Clear
1:35 PM 32.4 °F - 24.1 °F 72% 29.72 in 10.0 mi Calm Calm - N/A   Clear
1:56 PM 32.7 °F - 24.3 °F 71% 29.71 in 10.0 mi Calm Calm - N/A   Clear
2:15 PM 32.5 °F 29.3 °F 24.1 °F 71% 29.71 in 10.0 mi NW 3.5 mph - N/A   Clear
2:35 PM 33.1 °F 28.7 °F 24.6 °F 71% 29.71 in 10.0 mi NW 4.6 mph - N/A   Clear
2:56 PM 33.1 °F 28.7 °F 24.4 °F 71% 29.71 in 10.0 mi NW 4.6 mph - N/A   Clear
3:15 PM 32.9 °F 27.5 °F 23.9 °F 69% 29.71 in 10.0 mi WNW 5.8 mph - N/A   Mostly Cloudy
3:35 PM 32.9 °F 27.5 °F 23.7 °F 69% 29.72 in 10.0 mi NNW 5.8 mph - N/A   Overcast
3:55 PM 33.1 °F 27.7 °F 23.5 °F 68% 29.72 in 10.0 mi WNW 5.8 mph - N/A   Overcast
4:16 PM 32.9 °F 28.5 °F 23.2 °F 67% 29.72 in 10.0 mi NW 4.6 mph - N/A   Overcast
4:35 PM 32.0 °F 25.6 °F 23.9 °F 72% 29.72 in 10.0 mi NW 6.9 mph - N/A   Mostly Cloudy
4:56 PM 31.5 °F 24.2 °F 23.7 °F 73% 29.72 in 10.0 mi NW 8.1 mph - N/A   Scattered Clouds
5:15 PM 30.7 °F 24.1 °F 23.9 °F 76% 29.72 in 10.0 mi NW 6.9 mph - N/A   Clear
5:35 PM 30.2 °F 26.7 °F 23.5 °F 76% 29.72 in 10.0 mi NW 3.5 mph - N/A   Clear
5:56 PM 29.8 °F 24.9 °F 23.2 °F 76% 29.72 in 10.0 mi NW 4.6 mph - N/A   Clear
6:16 PM 29.3 °F 24.3 °F 23.0 °F 77% 29.74 in 10.0 mi WNW 4.6 mph - N/A   Clear
6:35 PM 28.6 °F 24.8 °F 23.0 °F 80% 29.74 in 10.0 mi WNW 3.5 mph - N/A   Clear
6:56 PM 28.0 °F 24.2 °F 22.8 °F 81% 29.75 in 10.0 mi WNW 3.5 mph - N/A   Clear
7:16 PM 27.5 °F 22.2 °F 22.6 °F 82% 29.75 in 10.0 mi WNW 4.6 mph - N/A   Clear
7:35 PM 27.1 °F 21.8 °F 22.5 °F 83% 29.77 in 10.0 mi WNW 4.6 mph - N/A   Clear
7:56 PM 26.6 °F 21.2 °F 22.1 °F 83% 29.78 in 10.0 mi WNW 4.6 mph - N/A   Clear
8:15 PM 25.7 °F 21.5 °F 21.9 °F 86% 29.78 in 10.0 mi WNW 3.5 mph - N/A   Clear
8:36 PM 25.3 °F 21.1 °F 21.9 °F 87% 29.79 in 10.0 mi WNW 3.5 mph - N/A   Clear
8:55 PM 24.8 °F - 21.9 °F 89% 29.79 in 10.0 mi Calm Calm - N/A   Clear
9:16 PM 24.4 °F - 22.8 °F 94% 29.80 in 7.0 mi Calm Calm - N/A   Clear
9:35 PM 24.4 °F 20.1 °F 23.0 °F 94% 29.80 in 7.0 mi West 3.5 mph - N/A   Clear
9:56 PM 24.4 °F 18.6 °F 22.6 °F 93% 29.81 in 7.0 mi West 4.6 mph - N/A   Clear
10:15 PM 24.4 °F 20.1 °F 22.6 °F 93% 29.81 in 7.0 mi WSW 3.5 mph - N/A   Clear
10:36 PM 23.9 °F - 23.0 °F 96% 29.81 in 7.0 mi Calm Calm - N/A   Clear
10:56 PM 23.4 °F - 23.5 °F 100% 29.82 in 7.0 mi Calm Calm - N/A   Clear
11:16 PM 23.4 °F - 23.4 °F 100% 29.81 in 7.0 mi Calm Calm - N/A   Clear
11:35 PM 23.0 °F - 23.0 °F 100% 29.82 in 5.0 mi Calm Calm - N/A   Clear
11:56 PM 23.4 °F - 23.4 °F 100% 29.83 in 7.0 mi Calm Calm - N/A   Clear